Weather History for KGTF - April, 2014

Change the Weather History Date:

Tuesday, April 15, 2014

  Actual Average Record
Temperature  
Mean Temperature 44 °F 43 °F  
Max Temperature 52 °F 55 °F 82 °F (1926)
Min Temperature 36 °F 30 °F 15 °F (1896)
Degree Days  
Heating Degree Days 21 22  
Month to date heating degree days 353 360  
Since 1 July heating degree days 7091 6818  
Cooling Degree Days 0 0  
Month to date cooling degree days 0 0  
Year to date cooling degree days 0 0  
Moisture  
Dew Point 29 °F    
Average Humidity 56    
Maximum Humidity 86    
Minimum Humidity 26    
Precipitation  
Precipitation 0.05 in 0.05 in 1.01 in (1896)
Month to date precipitation 0.46 0.66  
Year to date precipitation 4.19 2.55  
Snow  
Snow 0.00 in 0.30 in 3.60 in (1894)
Month to date snowfall 2.3 4.7  
Since 1 July snowfall 72.6 56.6  
Snow Depth 0.00 in    
Sea Level Pressure  
Sea Level Pressure 29.76 in    
Wind  
Wind Speed 14 mph (West)    
Max Wind Speed 29 mph    
Max Gust Speed 38 mph    
Visibility 9 miles    
Events Rain    
T = Trace of Precipitation, MM = Missing Value Source: NWS Daily Summary

Daily Weather History Graph

Daily Weather History Graph

Search for Another Location

Airport or City:

Trip Planner

Search our weather history database for the weather conditions in past years. The results will help you decide how hot, cold, wet, or windy it might be!

Date:

Astronomy

Apr. 15, 2014 Rise Set
Actual Time 6:36 AM MDT 8:15 PM MDT
Civil Twilight 6:04 AM MDT 8:47 PM MDT
Nautical Twilight 5:25 AM MDT 9:27 PM MDT
Astronomical Twilight 4:42 AM MDT 10:10 PM MDT
Moon 9:03 PM MDT (4/15) 6:46 AM MDT (4/15)
Length of Visible Light 14h 42m
Length of Day
13h 38m
Full, 100% of the Moon is Illuminated
Apr 15
Full
Apr 22
Last Quarter
Apr 29
New
May 6
First Quarter
May 14
Full

Hourly Weather History & Observations

Time (MDT) Temp. Windchill Dew Point Humidity Pressure Visibility Wind Dir Wind Speed Gust Speed Precip Events Conditions
12:53 AM 46.9 °F - 16.0 °F 29% 29.80 in 10.0 mi SW 13.8 mph - N/A   Clear
1:53 AM 48.0 °F - 16.0 °F 28% 29.77 in 10.0 mi SW 13.8 mph - N/A   Overcast
2:53 AM 48.0 °F - 18.0 °F 30% 29.73 in 10.0 mi SW 15.0 mph - N/A   Partly Cloudy
3:53 AM 46.9 °F - 19.0 °F 33% 29.72 in 10.0 mi SW 13.8 mph - N/A   Clear
4:53 AM 46.0 °F 39.6 °F 21.0 °F 37% 29.71 in 10.0 mi SW 15.0 mph - N/A   Clear
5:53 AM 46.9 °F - 21.0 °F 36% 29.69 in 10.0 mi SW 13.8 mph - N/A   Clear
6:53 AM 48.9 °F - 21.0 °F 33% 29.68 in 10.0 mi SW 17.3 mph - N/A   Clear
7:53 AM 48.0 °F - 23.0 °F 37% 29.70 in 10.0 mi SW 19.6 mph - N/A   Clear
8:53 AM 50.0 °F - 24.1 °F 36% 29.70 in 10.0 mi SW 17.3 mph - N/A   Clear
9:53 AM 52.0 °F - 24.1 °F 34% 29.70 in 10.0 mi WSW 17.3 mph 27.6 mph N/A   Overcast
10:53 AM 51.1 °F - 24.1 °F 35% 29.71 in 10.0 mi WNW 13.8 mph 19.6 mph N/A   Overcast
11:53 AM 50.0 °F - 27.0 °F 41% 29.70 in 10.0 mi West 24.2 mph 33.4 mph N/A   Overcast
12:53 PM 43.0 °F 35.7 °F 36.0 °F 76% 29.72 in 10.0 mi SW 15.0 mph - 0.00 in   Overcast
1:53 PM 42.1 °F 33.6 °F 35.1 °F 76% 29.73 in 5.0 mi NW 18.4 mph 26.5 mph 0.00 in Rain Light Rain
2:01 PM 39.2 °F 30.8 °F 35.6 °F 87% 29.70 in 4.0 mi NNW 15.0 mph 27.6 mph 0.01 in Rain Light Rain
2:13 PM 39.2 °F 29.8 °F 35.6 °F 87% 29.70 in 10.0 mi NNW 18.4 mph - 0.02 in Rain Light Rain
2:45 PM 39.2 °F 33.0 °F 37.4 °F 93% 29.70 in 6.0 mi West 9.2 mph - 0.04 in Rain Light Rain
2:53 PM 41.0 °F 32.5 °F 37.0 °F 86% 29.74 in 10.0 mi West 17.3 mph 21.9 mph 0.05 in Rain Light Rain
3:02 PM 42.8 °F 37.0 °F 35.6 °F 76% 29.69 in 8.0 mi WSW 10.4 mph 23.0 mph 0.00 in Rain Light Rain
3:53 PM 46.0 °F 40.2 °F 37.9 °F 73% 29.72 in 10.0 mi West 12.7 mph - 0.00 in   Overcast
4:53 PM 45.0 °F 38.2 °F 32.0 °F 60% 29.74 in 10.0 mi NW 15.0 mph - N/A   Overcast
5:53 PM 43.0 °F 34.5 °F 32.0 °F 65% 29.77 in 10.0 mi NW 19.6 mph - 0.00 in   Overcast
6:53 PM 39.9 °F 33.4 °F 34.0 °F 79% 29.81 in 10.0 mi West 10.4 mph - 0.00 in Rain Light Rain
7:53 PM 41.0 °F 32.8 °F 32.0 °F 70% 29.82 in 10.0 mi WNW 16.1 mph 21.9 mph 0.00 in   Overcast
8:53 PM 39.9 °F 32.1 °F 32.0 °F 73% 29.85 in 10.0 mi WNW 13.8 mph - 0.00 in Rain Light Rain
9:53 PM 39.0 °F 32.8 °F 33.1 °F 79% 29.88 in 10.0 mi NW 9.2 mph - 0.00 in   Overcast
10:22 PM 37.4 °F 30.3 °F 33.8 °F 87% 29.85 in 10.0 mi NNW 10.4 mph - 0.00 in Rain Light Rain
10:43 PM 37.4 °F 33.8 °F 35.6 °F 93% 29.85 in 10.0 mi NNE 4.6 mph - 0.00 in Rain Light Rain
10:53 PM 37.0 °F 34.5 °F 34.0 °F 89% 29.89 in 10.0 mi NW 3.5 mph - 0.00 in   Overcast
11:23 PM 37.4 °F 32.1 °F 35.6 °F 93% 29.86 in 10.0 mi WNW 6.9 mph - 0.00 in   Overcast
11:53 PM 37.0 °F 33.3 °F 35.1 °F 93% 29.91 in 9.0 mi West 4.6 mph - 0.00 in Rain Light Rain